Wind_Speed
42 42 42 40 40 41 40 40 42 44 46 45 45 42 37 36 37 36 36 32 35 33 33 30 26 26 27 26 26 28 27 26 23 21 19 19 17 17 16 12 24 27 27
47 47 48 47 46 45 46 47 46 46 47 48 47 46 45 41 37 37 38 37 38 37 38 37 33 29 29 27 28 29 28 28 26 24 23 22 20 19 16 16 19 26 24
50 50 51 54 54 52 49 49 50 49 49 50 49 51 49 46 44 42 42 44 41 41 40 41 41 36 32 28 29 29 30 28 28 27 26 27 23 22 21 18 18 24 22
53 54 54 55 57 56 56 56 53 54 52 53 51 47 47 48 52 50 49 47 47 42 44 44 45 45 36 33 30 27 31 32 30 29 28 28 27 25 24 22 19 23 23
55 56 57 58 58 60 61 61 61 59 59 56 62 42 45 51 49 56 55 51 49 48 45 48 49 44 37 36 32 28 29 32 33 33 32 30 30 29 26 26 22 21 25
57 57 58 60 62 63 64 64 64 65 62 60 60 62 60 54 52 53 56 55 57 51 50 53 49 44 39 36 34 36 34 31 27 33 35 33 32 32 28 27 27 25 26
54 54 53 56 59 62 65 68 67 66 67 69 68 64 65 62 60 55 61 44 51 49 51 41 44 42 46 45 35 30 34 29 26 29 35 36 34 35 35 30 30 28 27
55 54 56 58 59 61 62 65 67 69 68 69 72 70 68 67 67 65 64 57 50 50 41 32 28 38 35 34 31 29 29 30 24 30 30 33 36 38 39 34 34 32 31
56 58 59 60 63 65 67 67 67 70 70 70 72 72 72 72 70 68 63 58 49 48 39 37 28 23 27 27 29 34 33 29 30 28 32 31 31 38 41 40 37 36 36
57 58 60 60 59 59 63 65 66 71 73 74 73 75 72 72 73 68 65 55 51 44 45 39 37 32 29 29 31 30 33 37 32 31 32 30 29 30 40 43 41 38 39
58 59 59 57 58 57 54 50 51 56 62 69 68 73 73 70 70 68 60 57 51 47 44 41 37 38 38 37 37 36 38 35 36 36 34 33 30 31 35 45 45 43 41
54 56 58 56 53 54 52 52 52 55 57 57 54 59 66 68 65 65 64 56 52 49 47 43 42 41 39 40 40 39 40 37 38 40 39 38 35 33 33 40 48 46 45
47 47 51 52 50 50 49 51 48 48 51 50 53 53 56 63 64 59 59 56 53 52 47 44 46 44 44 42 42 41 41 39 39 41 42 41 41 39 37 37 44 49 46
52 51 53 50 50 52 44 43 44 46 44 49 49 49 54 59 62 59 58 55 52 49 51 49 47 46 45 45 43 43 42 42 42 43 45 46 44 43 42 41 43 48 51
41 39 42 39 34 36 32 30 28 27 32 37 40 47 51 56 58 60 56 51 53 53 51 50 50 48 46 45 44 46 47 46 45 46 47 50 50 48 47 44 44 45 52
33 31 30 33 33 29 30 27 27 25 32 35 37 38 44 48 53 53 51 53 53 50 51 52 50 49 48 48 49 49 50 48 46 47 49 51 52 50 51 51 53 56 58
28 32 24 22 29 36 34 30 28 32 36 35 37 37 37 43 48 49 47 47 51 50 53 48 49 51 51 50 50 50 50 49 48 51 52 51 53 54 54 56 59 60 62
32 31 32 28 32 35 31 29 29 28 30 34 39 37 35 38 45 47 47 46 46 47 47 49 47 49 50 50 51 49 50 49 49 53 55 56 55 56 55 57 61 66 68
29 30 31 32 29 28 27 29 30 31 31 31 35 38 33 33 34 43 48 49 47 47 47 49 45 47 48 49 51 53 53 53 54 53 53 51 54 56 58 58 61 64 66
29 27 28 28 27 29 30 32 33 35 36 35 34 34 36 33 33 38 45 51 55 49 50 53 51 52 51 52 52 54 54 54 52 53 54 51 51 55 58 61 62 64 67
35 33 33 32 33 34 34 37 38 38 38 38 39 37 36 37 36 37 40 44 45 53 52 50 55 53 53 54 55 54 54 53 50 52 54 54 54 57 58 58 58 60 65
32 33 33 33 36 36 37 38 37 38 37 37 38 39 39 39 40 40 41 42 44 46 43 47 50 51 54 56 56 56 55 53 50 52 55 55 56 54 55 56 55 59 61
25 26 28 27 26 29 28 31 31 34 38 38 38 38 38 38 41 44 45 44 44 46 48 49 52 53 56 54 54 56 56 54 49 50 57 54 53 51 53 49 46 47 51
16 14 15 16 16 17 17 18 19 22 24 27 31 34 37 38 40 43 46 47 47 46 47 49 51 54 56 58 59 57 55 54 53 52 56 52 52 52 52 49 51 47 46
17 13 12 12 12 13 15 14 15 15 16 16 17 20 23 21 22 26 31 36 45 48 48 49 50 53 56 56 56 58 58 57 57 56 56 53 55 54 49 52 53 53 52
9 7 7 9 12 14 13 14 14 14 13 14 15 16 16 16 16 17 17 20 23 28 36 47 51 52 53 55 56 57 58 59 58 58 58 55 57 58 54 50 53 53 51
Wind_Direction
274 275 273 272 274 276 277 276 275 275 275 275 271 268 263 260 265 268 270 271 273 273 275 273 265 267 266 265 264 265 265 267 266 271 274 287 291 297 305 259 234 233 233
274 274 274 273 271 272 274 275 274 273 274 274 276 278 276 267 261 266 269 269 268 271 273 273 270 264 266 265 263 263 263 265 266 263 266 274 284 291 295 275 245 231 230
273 272 273 274 275 274 272 273 274 273 274 273 276 278 279 275 272 267 264 266 265 267 271 275 276 271 262 259 259 262 262 259 263 263 263 264 268 279 286 282 263 240 241
271 271 270 270 272 273 273 272 268 269 270 274 274 269 273 282 270 268 265 265 267 266 268 269 273 276 268 257 251 254 261 258 255 254 255 258 262 265 273 279 279 262 250
269 269 269 270 270 269 267 267 268 267 266 269 274 273 257 272 274 265 267 268 269 267 273 266 267 269 276 267 249 242 247 255 254 254 255 251 256 255 257 267 267 258 244
270 268 266 266 267 268 268 266 264 265 265 266 266 269 269 266 267 268 267 261 267 266 277 268 266 266 265 270 267 247 238 242 257 241 249 252 254 255 248 252 263 260 253
272 268 268 267 264 263 263 264 264 263 263 265 265 266 267 264 261 260 265 236 257 276 282 279 271 249 260 270 247 234 226 245 240 241 244 248 250 252 255 247 251 256 258
274 271 269 267 264 261 260 261 263 262 262 262 264 263 263 265 264 265 269 274 275 276 282 274 272 259 246 244 223 232 224 231 237 242 256 261 249 249 247 247 248 252 254
269 268 265 262 259 258 256 256 256 259 258 258 260 262 260 262 264 264 264 266 270 270 272 274 271 249 238 228 234 231 223 234 247 242 249 261 262 249 242 242 243 247 250
263 259 258 259 262 264 264 262 262 258 256 255 256 258 259 259 261 264 265 262 263 263 263 260 260 259 246 234 237 236 236 242 250 252 251 257 267 262 243 243 242 248 252
259 256 257 258 260 265 268 261 260 262 263 261 261 257 258 257 259 261 262 263 260 261 261 263 262 253 248 246 241 241 245 243 251 257 255 256 260 265 258 245 243 244 247
260 256 259 259 260 259 261 259 258 262 261 259 259 260 258 257 257 258 260 258 258 257 257 259 258 256 252 248 245 246 248 249 252 257 257 257 256 258 260 256 247 244 245
263 258 260 258 256 255 255 254 260 261 263 263 262 256 255 256 256 256 257 255 254 255 252 252 255 255 254 251 249 247 247 248 251 255 256 255 256 256 259 256 251 248 245
267 272 259 258 263 255 252 255 258 261 261 265 263 261 256 252 252 253 253 255 250 252 253 251 252 253 253 250 247 246 247 249 250 253 253 254 254 257 258 258 252 250 247
263 258 261 256 260 246 240 244 250 257 271 269 267 266 258 253 252 252 251 251 252 246 250 249 247 249 248 247 247 247 247 248 249 250 248 253 255 253 254 255 250 247 245
262 257 255 252 235 226 233 240 259 271 282 282 272 272 264 256 248 249 248 248 252 248 243 243 244 244 245 244 244 245 249 251 251 250 250 251 256 258 257 256 254 253 253
246 267 239 234 244 232 252 251 255 269 275 277 281 275 274 257 250 246 248 248 249 247 246 238 241 242 243 244 245 244 246 248 249 250 251 252 254 255 256 256 256 256 255
245 249 246 247 255 251 256 240 254 267 277 277 281 288 278 269 244 243 243 242 243 247 248 245 241 242 243 246 246 245 248 250 251 255 255 254 254 255 259 259 258 255 254
248 241 244 252 251 237 239 249 260 265 273 277 277 281 282 281 256 244 242 245 244 245 245 245 244 244 244 241 242 246 246 247 249 251 255 256 255 258 262 263 261 256 251
260 246 237 236 239 244 249 254 260 268 271 272 270 270 275 273 267 267 262 252 240 246 247 246 246 247 246 245 248 246 245 245 248 255 255 258 262 261 263 263 260 256 251
265 263 257 250 252 256 260 264 266 268 271 271 267 266 266 269 269 263 261 266 255 238 240 245 245 246 249 247 247 245 246 253 256 260 261 261 266 270 264 263 262 259 251
269 269 268 266 266 267 267 269 271 273 274 272 268 268 269 268 268 268 265 260 259 261 259 251 249 250 254 253 250 250 253 254 257 260 260 261 263 263 261 259 263 261 253
270 273 274 273 271 271 272 272 274 276 275 275 275 275 272 271 268 267 268 265 261 257 255 254 254 252 253 252 252 252 255 255 255 260 260 258 256 260 264 255 258 265 255
261 267 267 265 264 267 271 274 274 271 271 272 273 274 274 268 264 263 261 264 264 263 258 258 255 254 255 255 254 255 258 258 256 257 255 256 256 258 253 252 256 259 256
249 259 273 272 273 279 273 268 267 269 276 276 277 278 277 281 284 280 275 270 264 262 263 260 257 256 257 258 257 258 259 258 257 258 258 255 256 256 254 260 257 255 256
244 250 265 279 289 298 291 276 273 262 273 282 283 281 280 280 283 285 290 292 289 281 273 263 259 259 259 259 259 259 259 261 259 257 257 257 257 255 255 259 256 255 257
Height
5799 5799 5801 5801 5801 5801 5801 5799 5799 5799 5798 5797 5797 5799 5800 5800 5800 5801 5801 5805 5804 5805 5804 5806 5809 5810 5810 5812 5812 5812 5813 5813 5813 5813 5813 5813 5812 5812 5812 5811 5812 5813 5817
5789 5789 5790 5791 5792 5793 5792 5791 5791 5791 5790 5790 5789 5790 5793 5792 5792 5793 5795 5795 5796 5796 5797 5799 5801 5803 5803 5805 5807 5806 5808 5808 5809 5809 5809 5809 5808 5808 5809 5809 5808 5809 5812
5779 5780 5779 5779 5781 5783 5784 5783 5782 5781 5781 5783 5784 5782 5783 5784 5785 5786 5786 5783 5787 5788 5789 5790 5792 5794 5796 5797 5799 5801 5801 5801 5802 5804 5804 5803 5804 5805 5805 5806 5806 5805 5807
5767 5768 5768 5768 5768 5770 5772 5773 5773 5774 5773 5773 5776 5772 5775 5774 5774 5775 5773 5776 5776 5780 5780 5781 5782 5784 5786 5790 5790 5793 5794 5794 5795 5795 5797 5797 5798 5799 5801 5801 5801 5801 5803
5756 5755 5754 5755 5757 5758 5759 5761 5761 5762 5763 5766 5756 5744 5751 5766 5763 5764 5763 5766 5767 5769 5771 5772 5772 5774 5776 5779 5782 5782 5785 5787 5787 5788 5790 5791 5791 5793 5794 5796 5797 5798 5799
5742 5741 5742 5744 5743 5743 5743 5745 5748 5749 5751 5752 5751 5751 5752 5756 5755 5754 5751 5749 5753 5753 5754 5756 5757 5764 5767 5767 5771 5774 5774 5778 5779 5780 5781 5783 5785 5786 5786 5788 5790 5792 5794
5724 5724 5726 5728 5729 5729 5729 5728 5731 5734 5737 5737 5737 5738 5739 5742 5743 5737 5733 5705 5741 5741 5746 5743 5745 5748 5754 5755 5758 5763 5763 5769 5770 5772 5773 5774 5776 5778 5781 5781 5782 5784 5788
5708 5707 5708 5709 5710 5711 5712 5713 5714 5717 5720 5721 5721 5722 5724 5727 5728 5731 5730 5732 5738 5738 5741 5736 5738 5738 5743 5744 5749 5753 5755 5761 5763 5765 5767 5766 5766 5769 5772 5774 5776 5777 5779
5692 5691 5691 5692 5693 5694 5694 5696 5696 5698 5702 5705 5705 5705 5708 5709 5710 5713 5720 5725 5729 5732 5733 5734 5733 5730 5733 5736 5741 5744 5748 5752 5755 5756 5759 5760 5758 5758 5762 5766 5768 5770 5771
5673 5674 5673 5674 5676 5678 5679 5681 5681 5681 5682 5686 5688 5689 5691 5693 5696 5698 5703 5712 5717 5721 5723 5725 5724 5725 5729 5730 5734 5737 5741 5744 5746 5747 5749 5751 5750 5749 5753 5758 5760 5762 5766
5658 5658 5658 5660 5662 5663 5665 5667 5666 5667 5667 5669 5671 5673 5675 5677 5680 5682 5689 5694 5702 5706 5710 5710 5711 5715 5718 5721 5725 5728 5734 5733 5736 5740 5741 5742 5742 5744 5744 5747 5752 5754 5756
5643 5644 5645 5647 5648 5650 5652 5654 5654 5655 5654 5655 5656 5658 5659 5661 5665 5667 5672 5681 5687 5694 5697 5700 5702 5705 5708 5712 5715 5719 5723 5725 5727 5729 5731 5732 5733 5734 5736 5738 5742 5744 5746
5630 5631 5631 5631 5634 5635 5639 5641 5643 5643 5643 5643 5643 5644 5646 5647 5651 5654 5657 5665 5671 5679 5683 5688 5691 5694 5696 5700 5704 5707 5710 5714 5717 5719 5719 5721 5724 5725 5726 5728 5732 5735 5736
5620 5619 5618 5620 5621 5624 5629 5632 5633 5632 5632 5631 5630 5631 5633 5634 5636 5641 5645 5649 5656 5662 5669 5674 5677 5680 5685 5688 5691 5695 5698 5702 5705 5707 5709 5710 5713 5714 5716 5717 5720 5724 5726
5608 5607 5606 5608 5609 5614 5618 5622 5624 5622 5622 5620 5619 5619 5620 5622 5624 5628 5632 5636 5641 5648 5656 5659 5663 5666 5671 5675 5678 5681 5685 5688 5692 5694 5697 5698 5701 5702 5704 5707 5710 5713 5717
5598 5598 5596 5599 5603 5606 5611 5611 5612 5611 5612 5611 5610 5608 5607 5610 5612 5614 5618 5623 5627 5632 5641 5645 5649 5652 5657 5662 5666 5668 5671 5676 5678 5682 5683 5686 5687 5689 5693 5695 5698 5701 5704
5589 5590 5589 5591 5595 5599 5601 5601 5602 5603 5603 5601 5599 5598 5596 5596 5598 5602 5606 5609 5613 5616 5625 5633 5636 5639 5643 5648 5651 5655 5658 5661 5665 5667 5670 5671 5672 5676 5679 5681 5684 5687 5688
5581 5583 5584 5586 5587 5590 5591 5592 5594 5594 5594 5593 5590 5588 5586 5584 5586 5591 5594 5597 5601 5603 5608 5616 5621 5624 5628 5632 5635 5639 5642 5646 5650 5652 5655 5656 5658 5661 5663 5665 5667 5669 5672
5573 5573 5575 5576 5577 5580 5582 5583 5584 5585 5585 5584 5582 5580 5578 5577 5576 5579 5583 5585 5588 5591 5595 5600 5606 5610 5614 5616 5620 5623 5626 5631 5635 5637 5638 5640 5641 5642 5644 5646 5647 5650 5654
5567 5566 5567 5569 5570 5572 5573 5575 5575 5575 5575 5575 5574 5572 5571 5570 5570 5570 5571 5572 5575 5578 5581 5585 5589 5595 5599 5602 5606 5608 5611 5614 5618 5619 5621 5620 5621 5623 5624 5625 5627 5629 5634
5560 5560 5560 5561 5562 5563 5564 5565 5565 5565 5565 5565 5564 5563 5562 5561 5561 5562 5562 5562 5562 5564 5567 5570 5573 5577 5580 5584 5589 5592 5596 5598 5602 5603 5602 5605 5606 5606 5608 5608 5609 5611 5614
5552 5553 5553 5553 5554 5554 5554 5555 5554 5554 5554 5554 5554 5554 5553 5552 5551 5551 5552 5553 5554 5555 5554 5557 5560 5562 5564 5568 5572 5575 5578 5580 5587 5587 5584 5587 5588 5588 5590 5592 5594 5593 5594
5545 5545 5547 5546 5546 5547 5546 5546 5545 5544 5545 5544 5544 5542 5542 5541 5541 5541 5540 5541 5542 5543 5544 5546 5547 5549 5551 5554 5557 5560 5559 5563 5569 5572 5567 5570 5570 5574 5575 5578 5578 5578 5578
5540 5540 5541 5542 5542 5542 5540 5539 5538 5539 5537 5536 5535 5534 5533 5532 5531 5530 5530 5530 5529 5530 5531 5532 5533 5535 5537 5539 5542 5543 5544 5548 5553 5554 5547 5550 5555 5559 5558 5562 5564 5565 5565
5538 5538 5538 5537 5537 5537 5536 5535 5534 5533 5532 5531 5530 5528 5527 5524 5522 5521 5519 5518 5518 5517 5518 5518 5519 5520 5522 5523 5525 5526 5528 5532 5536 5533 5529 5534 5540 5542 5541 5546 5549 5551 5552
5535 5535 5535 5535 5533 5533 5532 5531 5530 5529 5528 5527 5526 5524 5522 5520 5518 5517 5513 5511 5509 5508 5506 5505 5505 5505 5506 5507 5508 5510 5512 5513 5515 5516 5515 5519 5521 5522 5526 5530 5534 5535 5538